Location: Ch�teau-Arnoux
(44.0814°N, 6.0027°E)
Time: 16:45:15
(UTC+00:00)

CZ-4B R/B - Pass Details

Date: 15 November 2019
Orbit: 486 x 653 km, 97.8° (Epoch: 06 December)

Event Time Altitude Azimuth Distance (km) Brightness Sun altitude
Rises 05:35:23 0° 352° (N) 2,568 6.0 -10.1°
Reaches altitude 10° 05:38:31 10° 321° (NW) 1,681 4.8 -9.6°
Enters shadow 05:39:40 12° 302° (WNW) 1,555 4.5 -9.4°
